Погода в Графтоне

Австралия     29°42′25″S   152°56′26″E
темп.,
°C
ветер,
м/с
пор.,
м/с
влажн.,
%
обл.,
%
осадки,
мм/ч
давл.,
гПа
погр.,
м
20 сентября, пн
пн2001:00+12зюз11970 0.0 102014
04:00+10з22950 0.0 101928
07:00+13з13540 0.0 1020126
10:00+25сз25250 0.0 1018826
13:00+32зсз38196 0.0 10123645
16:00+30зюз372283 0.0 10092848
19:00+21зюз1333100 0.0 101164
22:00+17ююз1148100 0.0 101111
21 сентября, вт
вт2101:00+17ююз1141100 0.0 100928
04:00+13юз115050 0.0 101016
07:00+14ююз2451100 0.0 1012176
10:00+22всв163166 0.3 10112438
13:00+20вюв4528100 0.2 10092429
16:00+11ююв3887100 3.4 1014861
19:00+10ю4127791 0.8 1017859
22:00+11ююз6136183 0.8 10191305
22 сентября, ср
ср2201:00+12ююз413625 0.0 10191232
04:00+11ююз311574 0.0 1019857
07:00+13ююз310530 0.0 1021947
10:00+19ю57325 0.0 10212059
13:00+21ююв46281 0.0 10192565
16:00+19юв57460 0.0 10201196
19:00+13ююв24710 0.0 1022143
22:00+10зюз23840 0.0 102448
23 сентября, чт
чт2301:00+8зюз22890 0.0 102336
04:00+7з22920 0.0 102243
07:00+11з23670 0.0 1024164
10:00+21сз22340 0.0 10231097
13:00+25с23240 0.0 10192008
16:00+24св55310 0.0 1018916
19:00+13ююз01760 0.0 102113
22:00+11юз11860 0.0 102113
24 сентября, пт
пт2401:00+10зсз11920 0.0 102011
04:00+8зсз11940 0.0 101913
07:00+13сз13625 0.0 1020155
10:00+24сз25284 0.0 10181204
13:00+30ссз251764 0.0 10133016
16:00+27зсз1325100 0.0 1012348
19:00+17ююв1168100 0.0 101513
22:00+16зюз225398 0.0 101633